Regional Weather Roundup
Issued by NWS Kansas City/Pleasant Hill, MO

Home | Current Version | Previous Version | Graphics & Text | Print | Product List | Glossary Off
Versions: 1 2 3 4 5 6 7 8 9 10 11 12 13 14 15 16 17 18 19 20 21 22 23 24 25 26 27 28 29 30 31 32 33 34 35 36 37 38 39 40 41 42 43 44 45 46 47 48 49 50

000
ASUS43 KEAX 312004
RWREAX

WEATHER ROUNDUP FOR EASTERN KANSAS AND NORTHWEST MISSOURI
NATIONAL WEATHER SERVICE KANSAS CITY/PLEASANT HILL MO
300 PM CDT THU JUL 31 2014

KSZ040-057-103>105-MOZ028-029-037-043-312100-
...KANSAS CITY METROPOLITAN AREA...

CITY           SKY/WX    TMP DP  RH WIND       PRES   REMARKS
K.C. INTL      NOT AVBL
K.C. DOWNTOWN  NOT AVBL
LEES SUMMIT    NOT AVBL
OLATHE - IXD   NOT AVBL
OLATHE - OJC   NOT AVBL

$$

MOZ001>008-011>017-020>025-030>033-038>040-044>046-053-054-312100-
...NORTHERN AND CENTRAL MISSOURI...

CITY           SKY/WX    TMP DP  RH WIND       PRES   REMARKS
ST. JOSEPH     NOT AVBL
MOSBY          CLEAR     81  50  34 S3        30.08F
WHITEMAN AFB   NOT AVBL
CLINTON        NOT AVBL
SEDALIA        NOT AVBL
WARSAW         NOT AVBL
MARSHALL         N/A     84  57  39 CALM      30.09F HAZE
CHILLICOTHE      N/A     83  53  35 VRB3      30.09F
KIRKSVILLE     NOT AVBL

$$

MOZ041-047>049-056>058-063>065-088>090-097-312100-
...EASTERN AND SOUTHERN MISSOURI...

CITY           SKY/WX    TMP DP  RH WIND       PRES   REMARKS
ST. LOUIS INTL PTSUNNY   83  58  42 VRB3      30.08S
HANNIBAL       CLOUDY    82  57  42 CALM      30.09
LEBANON        MOSUNNY   84  55  37 SW6       30.09F
BRANSON        CLOUDY    73  66  78 SE8       30.11F
NEVADA         MOSUNNY   82  59  44 CALM      30.09F

$$

IAZ060-094-KSZ022-034>040-054-083-096-NEZ052-066-093-312100-
...KANSAS...SOUTHEAST NEBRASKA AND IOWA...

CITY           SKY/WX    TMP DP  RH WIND       PRES   REMARKS
TOPEKA         NOT AVBL
MANHATTAN      SUNNY     83  52  34 N3        30.08F

$$



USA.gov is the U.S. government's official web portal to all federal, state and local government web resources and services.